• In Belarus
  • List of Countries
  • For 7 days
  • Water Temperature
  • Satellite Maps
  • Weather Map
  • Weather Widgets
  • user-avatar
    Login

    Hourly Weather Kranevo

    Today, 21 July, Sunday

    Time Temperature Precipitation Wind Pressure Humidity
    00:00 +21°C° 0 mm 1 mps 759 mmHg 77%
    01:00 +21°C° 0 mm 1 mps 759 mmHg 77%
    02:00 +21°C° 0 mm 1 mps 759 mmHg 76%
    03:00 +21°C° 0 mm 1 mps 759 mmHg 73%
    04:00 +21°C° 0 mm 1 mps 759 mmHg 69%
    05:00 +21°C° 0 mm 1 mps 759 mmHg 66%
    06:00 +23°C° 0 mm 1 mps 759 mmHg 59%
    07:00 +25°C° 0 mm 1 mps 759 mmHg 52%
    08:00 +28°C° 0 mm 1 mps 759 mmHg 45%
    09:00 +29°C° 0 mm 1 mps 759 mmHg 43%
    10:00 +30°C° 0 mm 2 mps 759 mmHg 41%
    11:00 +31°C° 0 mm 2 mps 759 mmHg 38%
    12:00 +31°C° 0 mm 2 mps 759 mmHg 39%
    13:00 +31°C° 0 mm 3 mps 759 mmHg 40%
    14:00 +30°C° 0 mm 4 mps 759 mmHg 41%
    15:00 +30°C° 0 mm 3 mps 759 mmHg 42%
    16:00 +30°C° 0 mm 3 mps 759 mmHg 43%
    17:00 +29°C° 0 mm 3 mps 759 mmHg 44%
    18:00 +27°C° 0 mm 3 mps 758 mmHg 51%
    19:00 +25°C° 0 mm 2 mps 758 mmHg 58%
    20:00 +23°C° 0 mm 2 mps 758 mmHg 66%
    21:00 +23°C° 0 mm 2 mps 758 mmHg 65%
    22:00 +23°C° 0 mm 2 mps 759 mmHg 64%
    23:00 +21°C° 0 mm 2 mps 759 mmHg 63%

    Tomorrow, 22 July, Monday

    Time Temperature Precipitation Wind Pressure Humidity
    00:00 +23°C° 0 mm 2 mps 759 mmHg 58%
    01:00 +23°C° 0 mm 2 mps 758 mmHg 52%
    02:00 +23°C° 0 mm 2 mps 758 mmHg 46%
    03:00 +23°C° 0 mm 2 mps 758 mmHg 45%
    04:00 +23°C° 0 mm 1 mps 758 mmHg 44%
    05:00 +23°C° 0 mm 1 mps 758 mmHg 44%
    06:00 +25°C° 0 mm 1 mps 758 mmHg 41%
    07:00 +28°C° 0 mm 1 mps 758 mmHg 38%
    08:00 +28°C° 0 mm 0 mps 758 mmHg 34%
    09:00 +31°C° 0 mm 1 mps 758 mmHg 33%
    10:00 +32°C° 0 mm 2 mps 758 mmHg 31%
    11:00 +34°C° 0 mm 2 mps 758 mmHg 29%
    12:00 +34°C° 0 mm 3 mps 758 mmHg 29%
    13:00 +34°C° 0 mm 3 mps 758 mmHg 30%
    14:00 +34°C° 0 mm 4 mps 757 mmHg 30%
    15:00 +34°C° 0 mm 4 mps 757 mmHg 32%
    16:00 +33°C° 0 mm 4 mps 757 mmHg 34%
    17:00 +32°C° 0 mm 4 mps 757 mmHg 36%
    18:00 +29°C° 0 mm 4 mps 757 mmHg 42%
    19:00 +28°C° 0 mm 3 mps 757 mmHg 49%
    20:00 +26°C° 0 mm 3 mps 756 mmHg 55%
    21:00 +25°C° 0 mm 3 mps 757 mmHg 56%
    22:00 +25°C° 0 mm 3 mps 757 mmHg 57%
    23:00 +25°C° 0 mm 3 mps 757 mmHg 58%

    Day after tomorrow, 23 July, Tuesday

    Time Temperature Precipitation Wind Pressure Humidity
    00:00 +24°C° 0.1 mm 3 mps 757 mmHg 68%
    01:00 +22°C° 0.1 mm 3 mps 757 mmHg 77%
    02:00 +21°C° 0.1 mm 2 mps 756 mmHg 87%
    03:00 +20°C° 0 mm 3 mps 756 mmHg 89%
    04:00 +20°C° 0 mm 3 mps 756 mmHg 90%
    05:00 +20°C° 0 mm 3 mps 756 mmHg 91%
    06:00 +21°C° 0 mm 4 mps 756 mmHg 89%
    07:00 +22°C° 0 mm 4 mps 756 mmHg 86%
    08:00 +22°C° 0 mm 4 mps 756 mmHg 84%
    09:00 +25°C° 0 mm 4 mps 756 mmHg 78%
    10:00 +26°C° 0 mm 5 mps 756 mmHg 71%
    11:00 +27°C° 0 mm 5 mps 756 mmHg 65%
    12:00 +27°C° 1 mm 5 mps 756 mmHg 66%
    13:00 +27°C° 1 mm 6 mps 756 mmHg 67%
    14:00 +26°C° 1 mm 7 mps 756 mmHg 69%
    15:00 +26°C° 0.5 mm 7 mps 756 mmHg 69%
    16:00 +24°C° 0.5 mm 7 mps 756 mmHg 70%
    17:00 +23°C° 0.5 mm 7 mps 756 mmHg 70%
    18:00 +22°C° 0 mm 6 mps 756 mmHg 77%
    19:00 +21°C° 0 mm 5 mps 756 mmHg 84%
    20:00 +19°C° 0 mm 3 mps 756 mmHg 91%
    21:00 +19°C° 0 mm 3 mps 757 mmHg 90%
    22:00 +19°C° 0 mm 3 mps 757 mmHg 90%
    23:00 +18°C° 0 mm 3 mps 757 mmHg 90%

    24 July, Wednesday

    Time Temperature Precipitation Wind Pressure Humidity
    00:00 +18°C° 0 mm 4 mps 757 mmHg 86%
    01:00 +17°C° 0 mm 5 mps 757 mmHg 83%
    02:00 +17°C° 0 mm 6 mps 756 mmHg 80%
    03:00 +17°C° 0 mm 6 mps 756 mmHg 81%
    04:00 +17°C° 0 mm 6 mps 756 mmHg 81%
    05:00 +17°C° 0 mm 6 mps 756 mmHg 82%
    06:00 +19°C° 0 mm 6 mps 757 mmHg 73%
    07:00 +21°C° 0 mm 6 mps 757 mmHg 64%
    08:00 +23°C° 0 mm 6 mps 757 mmHg 55%
    09:00 +25°C° 0 mm 5 mps 757 mmHg 51%
    10:00 +27°C° 0 mm 5 mps 757 mmHg 47%
    11:00 +28°C° 0 mm 4 mps 757 mmHg 43%
    12:00 +29°C° 0 mm 4 mps 757 mmHg 43%
    13:00 +29°C° 0 mm 4 mps 756 mmHg 42%
    14:00 +29°C° 0 mm 4 mps 756 mmHg 42%
    15:00 +29°C° 0 mm 4 mps 756 mmHg 43%
    16:00 +29°C° 0 mm 3 mps 756 mmHg 43%
    17:00 +28°C° 0 mm 3 mps 756 mmHg 44%
    18:00 +27°C° 0 mm 3 mps 756 mmHg 52%
    19:00 +25°C° 0 mm 2 mps 756 mmHg 61%
    20:00 +23°C° 0 mm 2 mps 756 mmHg 69%
    21:00 +23°C° 0 mm 2 mps 756 mmHg 67%
    22:00 +23°C° 0 mm 2 mps 756 mmHg 65%
    23:00 +23°C° 0 mm 2 mps 756 mmHg 63%

    25 July, Thursday

    Time Temperature Precipitation Wind Pressure Humidity
    00:00 +22°C° 0 mm 3 mps 756 mmHg 66%
    01:00 +21°C° 0 mm 4 mps 756 mmHg 70%
    02:00 +20°C° 0 mm 5 mps 756 mmHg 74%
    03:00 +20°C° 0 mm 5 mps 756 mmHg 77%
    04:00 +20°C° 0 mm 6 mps 756 mmHg 81%
    05:00 +19°C° 0 mm 6 mps 756 mmHg 85%
    06:00 +21°C° 0 mm 6 mps 756 mmHg 76%
    07:00 +23°C° 0 mm 7 mps 756 mmHg 67%
    08:00 +26°C° 0 mm 7 mps 757 mmHg 58%
    09:00 +27°C° 0 mm 7 mps 757 mmHg 53%
    10:00 +28°C° 0 mm 7 mps 757 mmHg 48%
    11:00 +30°C° 0 mm 6 mps 757 mmHg 42%
    12:00 +30°C° 0 mm 6 mps 757 mmHg 41%
    13:00 +32°C° 0 mm 6 mps 756 mmHg 39%
    14:00 +33°C° 0 mm 5 mps 756 mmHg 37%
    15:00 +32°C° 0 mm 5 mps 756 mmHg 38%
    16:00 +32°C° 0 mm 5 mps 756 mmHg 39%
    17:00 +30°C° 0 mm 4 mps 755 mmHg 40%
    18:00 +28°C° 0 mm 4 mps 756 mmHg 46%
    19:00 +27°C° 0 mm 3 mps 756 mmHg 52%
    20:00 +25°C° 0 mm 3 mps 756 mmHg 58%
    21:00 +24°C° 0 mm 3 mps 756 mmHg 57%
    22:00 +24°C° 0 mm 3 mps 756 mmHg 57%
    23:00 +22°C° 0 mm 3 mps 756 mmHg 56%

    26 July, Friday

    Time Temperature Precipitation Wind Pressure Humidity
    00:00 +22°C° 0 mm 3 mps 756 mmHg 58%
    01:00 +21°C° 0 mm 4 mps 756 mmHg 59%
    02:00 +21°C° 0 mm 4 mps 756 mmHg 60%
    03:00 +20°C° 0 mm 4 mps 756 mmHg 64%
    04:00 +19°C° 0 mm 4 mps 756 mmHg 67%
    05:00 +19°C° 0 mm 4 mps 756 mmHg 71%
    06:00 +21°C° 0 mm 4 mps 756 mmHg 64%
    07:00 +23°C° 0 mm 5 mps 756 mmHg 57%
    08:00 +26°C° 0 mm 5 mps 756 mmHg 51%
    09:00 +28°C° 0 mm 5 mps 756 mmHg 46%
    10:00 +29°C° 0 mm 5 mps 756 mmHg 40%
    11:00 +30°C° 0 mm 5 mps 756 mmHg 35%
    12:00 +32°C° 0 mm 5 mps 755 mmHg 34%
    13:00 +32°C° 0 mm 5 mps 755 mmHg 33%
    14:00 +33°C° 0 mm 5 mps 755 mmHg 31%
    15:00 +32°C° 0 mm 4 mps 755 mmHg 35%
    16:00 +32°C° 0 mm 4 mps 754 mmHg 39%
    17:00 +30°C° 0 mm 3 mps 754 mmHg 43%
    18:00 +28°C° 0 mm 2 mps 754 mmHg 52%
    19:00 +26°C° 0 mm 2 mps 755 mmHg 61%
    20:00 +24°C° 0 mm 1 mps 755 mmHg 70%
    21:00 +23°C° 0 mm 1 mps 755 mmHg 71%
    22:00 +23°C° 0 mm 1 mps 755 mmHg 73%
    23:00 +21°C° 0 mm 2 mps 755 mmHg 74%
    Show more